Time,TemperatureF,DewpointF,PressureIn,WindDirection,WindDirectionDegrees,WindSpeedMPH,WindSpeedGustMPH,Humidity,HourlyPrecipIn,Conditions,Clouds,dailyrainin,SoftwareType,DateUTC
2013-03-22 00:00:00,21.6,16.3,29.79,WSW,257,0.0,4.0,80,0.00,,,0.00,meteohub,2013-03-22 04:00:00,
2013-03-22 00:01:00,21.6,16.3,29.79,WSW,257,0.0,3.0,80,0.00,,,0.00,meteohub,2013-03-22 04:01:00,
2013-03-22 00:02:00,21.6,16.3,29.79,WSW,257,0.0,3.0,80,0.00,,,0.00,meteohub,2013-03-22 04:02:00,
2013-03-22 00:07:00,21.4,16.2,29.79,WSW,257,0.0,1.0,80,0.00,,,0.00,meteohub,2013-03-22 04:07:00,
2013-03-22 00:12:00,21.0,15.8,29.79,WSW,257,0.0,1.0,80,0.00,,,0.00,meteohub,2013-03-22 04:12:00,
2013-03-22 00:17:00,20.8,15.6,29.79,WSW,257,0.0,1.0,80,0.00,,,0.00,meteohub,2013-03-22 04:17:00,
2013-03-22 00:22:00,20.7,15.8,29.79,WSW,257,0.0,1.0,81,0.00,,,0.00,meteohub,2013-03-22 04:22:00,
2013-03-22 00:27:00,20.5,15.3,29.79,WSW,257,0.0,1.0,80,0.00,,,0.00,meteohub,2013-03-22 04:27:00,
2013-03-22 00:32:00,20.1,14.9,29.79,WSW,257,0.0,0.0,80,0.00,,,0.00,meteohub,2013-03-22 04:32:00,
2013-03-22 00:37:00,19.8,14.9,29.78,WSW,257,0.0,0.0,81,0.00,,,0.00,meteohub,2013-03-22 04:37:00,
2013-03-22 00:42:00,19.2,14.4,29.79,WSW,257,0.0,0.0,81,0.00,,,0.00,meteohub,2013-03-22 04:42:00,
2013-03-22 00:47:00,18.7,14.2,29.78,WSW,257,0.0,0.0,82,0.00,,,0.00,meteohub,2013-03-22 04:47:00,
2013-03-22 00:52:00,18.1,13.8,29.78,WSW,257,0.0,1.0,83,0.00,,,0.00,meteohub,2013-03-22 04:52:00,
2013-03-22 00:57:00,18.1,13.6,29.79,WSW,257,0.0,1.0,82,0.00,,,0.00,meteohub,2013-03-22 04:57:00,
2013-03-22 01:02:00,17.6,13.1,29.78,WSW,257,0.0,1.0,82,0.00,,,0.00,meteohub,2013-03-22 05:02:00,
2013-03-22 01:07:00,17.6,13.3,29.78,WSW,257,0.0,1.0,83,0.00,,,0.00,meteohub,2013-03-22 05:07:00,
2013-03-22 01:12:00,17.4,12.9,29.78,WSW,257,0.0,1.0,82,0.00,,,0.00,meteohub,2013-03-22 05:12:00,
2013-03-22 01:18:00,17.2,12.9,29.79,WSW,257,0.0,1.0,83,0.00,,,0.00,meteohub,2013-03-22 05:18:00,
2013-03-22 01:23:00,17.4,13.5,29.78,WSW,257,0.0,1.0,84,0.00,,,0.00,meteohub,2013-03-22 05:23:00,
2013-03-22 01:28:00,18.0,13.6,29.78,ENE,75,0.0,1.0,83,0.00,,,0.00,meteohub,2013-03-22 05:28:00,
2013-03-22 01:33:00,18.1,13.3,29.78,ENE,75,0.0,4.0,81,0.00,,,0.00,meteohub,2013-03-22 05:33:00,
2013-03-22 01:38:00,17.6,12.7,29.78,ENE,75,0.0,4.0,81,0.00,,,0.00,meteohub,2013-03-22 05:38:00,
2013-03-22 01:43:00,17.2,12.4,29.78,ENE,75,1.0,4.0,81,0.00,,,0.00,meteohub,2013-03-22 05:43:00,
2013-03-22 01:48:00,16.9,12.4,29.79,ENE,75,0.0,1.0,82,0.00,,,0.00,meteohub,2013-03-22 05:48:00,
2013-03-22 01:53:00,16.3,11.8,29.78,ENE,75,0.0,1.0,82,0.00,,,0.00,meteohub,2013-03-22 05:53:00,
2013-03-22 01:58:00,16.2,11.7,29.79,ENE,75,1.0,1.0,82,0.00,,,0.00,meteohub,2013-03-22 05:58:00,
2013-03-22 02:03:00,16.0,11.5,29.79,ENE,75,0.0,1.0,82,0.00,,,0.00,meteohub,2013-03-22 06:03:00,
2013-03-22 02:08:00,15.6,11.3,29.79,ENE,75,1.0,1.0,83,0.00,,,0.00,meteohub,2013-03-22 06:08:00,
2013-03-22 02:13:00,15.6,11.3,29.79,ENE,75,1.0,1.0,83,0.00,,,0.00,meteohub,2013-03-22 06:13:00,
2013-03-22 02:18:00,15.6,11.7,29.78,ENE,75,1.0,2.0,84,0.00,,,0.00,meteohub,2013-03-22 06:18:00,
2013-03-22 02:23:00,15.4,11.5,29.79,ENE,75,1.0,2.0,84,0.00,,,0.00,meteohub,2013-03-22 06:23:00,
2013-03-22 02:28:00,16.0,12.2,29.78,ENE,75,1.0,2.0,85,0.00,,,0.00,meteohub,2013-03-22 06:28:00,
2013-03-22 02:33:00,16.2,12.2,29.78,ENE,75,1.0,2.0,84,0.00,,,0.00,meteohub,2013-03-22 06:33:00,
2013-03-22 02:38:00,16.2,12.2,29.78,ENE,75,1.0,2.0,84,0.00,,,0.00,meteohub,2013-03-22 06:38:00,
2013-03-22 02:42:00,16.2,11.8,29.78,ENE,75,0.0,2.0,83,0.00,,,0.00,meteohub,2013-03-22 06:42:00,
2013-03-22 02:47:00,16.2,11.7,29.78,ENE,75,1.0,2.0,82,0.00,,,0.00,meteohub,2013-03-22 06:47:00,
2013-03-22 02:52:00,16.0,11.5,29.79,ENE,75,2.0,2.0,82,0.00,,,0.00,meteohub,2013-03-22 06:52:00,
2013-03-22 02:57:00,16.0,11.7,29.78,ENE,75,0.0,2.0,83,0.00,,,0.00,meteohub,2013-03-22 06:57:00,
2013-03-22 03:02:00,16.3,12.0,29.78,ENE,75,0.0,2.0,83,0.00,,,0.00,meteohub,2013-03-22 07:02:00,
2013-03-22 03:07:00,16.3,11.8,29.78,ENE,75,1.0,2.0,82,0.00,,,0.00,meteohub,2013-03-22 07:07:00,
2013-03-22 03:12:00,16.2,11.7,29.78,ENE,75,0.0,2.0,82,0.00,,,0.00,meteohub,2013-03-22 07:12:00,
2013-03-22 03:17:00,16.2,11.7,29.78,ENE,75,1.0,2.0,82,0.00,,,0.00,meteohub,2013-03-22 07:17:00,
2013-03-22 03:22:00,15.6,11.1,29.78,ENE,75,1.0,2.0,82,0.00,,,0.00,meteohub,2013-03-22 07:22:00,
2013-03-22 03:27:00,15.4,11.1,29.78,ENE,75,2.0,2.0,83,0.00,,,0.00,meteohub,2013-03-22 07:27:00,
2013-03-22 03:32:00,16.0,11.7,29.78,ENE,61,0.0,2.0,83,0.00,,,0.00,meteohub,2013-03-22 07:32:00,
2013-03-22 03:37:00,15.8,11.3,29.78,ENE,60,1.0,2.0,82,0.00,,,0.00,meteohub,2013-03-22 07:37:00,
2013-03-22 03:42:00,16.2,11.8,29.78,North,355,1.0,2.0,83,0.00,,,0.00,meteohub,2013-03-22 07:42:00,
2013-03-22 03:47:00,16.0,11.5,29.78,North,355,0.0,2.0,82,0.00,,,0.00,meteohub,2013-03-22 07:47:00,
2013-03-22 03:52:00,15.4,10.9,29.77,North,355,0.0,2.0,82,0.00,,,0.00,meteohub,2013-03-22 07:52:00,
2013-03-22 03:57:00,15.4,11.1,29.78,North,355,0.0,2.0,83,0.00,,,0.00,meteohub,2013-03-22 07:57:00,
2013-03-22 04:02:00,15.8,11.8,29.77,North,355,0.0,1.0,84,0.00,,,0.00,meteohub,2013-03-22 08:02:00,
2013-03-22 04:07:00,16.3,12.0,29.77,North,355,0.0,1.0,83,0.00,,,0.00,meteohub,2013-03-22 08:07:00,
2013-03-22 04:12:00,16.3,11.8,29.77,North,355,0.0,2.0,82,0.00,,,0.00,meteohub,2013-03-22 08:12:00,
2013-03-22 04:18:00,16.5,12.0,29.77,NNW,327,0.0,2.0,82,0.00,,,0.00,meteohub,2013-03-22 08:18:00,
2013-03-22 04:23:00,16.5,12.0,29.77,NNW,327,0.0,3.0,82,0.00,,,0.00,meteohub,2013-03-22 08:23:00,
2013-03-22 04:28:00,16.5,12.0,29.78,NNW,327,1.0,3.0,82,0.00,,,0.00,meteohub,2013-03-22 08:28:00,
2013-03-22 04:33:00,16.2,11.3,29.78,NNW,327,0.0,3.0,81,0.00,,,0.00,meteohub,2013-03-22 08:33:00,
2013-03-22 04:38:00,16.0,11.5,29.78,NNW,327,0.0,1.0,82,0.00,,,0.00,meteohub,2013-03-22 08:38:00,
2013-03-22 04:43:00,16.5,10.9,29.77,WSW,254,3.0,5.0,78,0.00,,,0.00,meteohub,2013-03-22 08:43:00,
2013-03-22 04:48:00,16.3,10.0,29.77,WSW,254,2.0,5.0,76,0.00,,,0.00,meteohub,2013-03-22 08:48:00,
2013-03-22 04:53:00,15.8,10.2,29.77,WSW,254,1.0,5.0,78,0.00,,,0.00,meteohub,2013-03-22 08:53:00,
2013-03-22 04:58:00,15.6,10.2,29.78,WSW,254,2.0,5.0,79,0.00,,,0.00,meteohub,2013-03-22 08:58:00,
2013-03-22 05:03:00,15.4,10.0,29.78,West,261,2.0,2.0,79,0.00,,,0.00,meteohub,2013-03-22 09:03:00,
2013-03-22 05:08:00,15.6,10.0,29.77,West,261,2.0,4.0,78,0.00,,,0.00,meteohub,2013-03-22 09:08:00,
2013-03-22 05:13:00,16.0,10.6,29.78,West,267,0.0,4.0,79,0.00,,,0.00,meteohub,2013-03-22 09:13:00,
2013-03-22 05:18:00,16.0,10.4,29.78,West,267,0.0,5.0,78,0.00,,,0.00,meteohub,2013-03-22 09:18:00,
2013-03-22 05:23:00,16.2,10.8,29.78,West,267,1.0,5.0,79,0.00,,,0.00,meteohub,2013-03-22 09:23:00,
2013-03-22 05:28:00,16.2,10.6,29.77,West,267,2.0,2.0,78,0.00,,,0.00,meteohub,2013-03-22 09:28:00,
2013-03-22 05:33:00,15.8,10.2,29.78,West,267,4.0,4.0,78,0.00,,,0.00,meteohub,2013-03-22 09:33:00,
2013-03-22 05:38:00,16.0,10.6,29.78,West,267,2.0,4.0,79,0.00,,,0.00,meteohub,2013-03-22 09:38:00,
2013-03-22 05:43:00,16.5,10.9,29.78,West,267,2.0,4.0,78,0.00,,,0.00,meteohub,2013-03-22 09:43:00,
2013-03-22 05:48:00,16.2,10.2,29.78,West,267,0.0,4.0,77,0.00,,,0.00,meteohub,2013-03-22 09:48:00,
2013-03-22 05:53:00,16.2,10.8,29.78,West,267,0.0,4.0,79,0.00,,,0.00,meteohub,2013-03-22 09:53:00,
2013-03-22 05:58:00,16.5,11.5,29.78,SSE,157,5.0,5.0,80,0.00,,,0.00,meteohub,2013-03-22 09:58:00,
2013-03-22 06:03:00,17.8,12.7,29.78,South,180,6.0,6.0,80,0.00,,,0.00,meteohub,2013-03-22 10:03:00,
2013-03-22 06:08:00,18.0,12.6,29.78,SSW,209,1.0,7.0,79,0.00,,,0.00,meteohub,2013-03-22 10:08:00,
2013-03-22 06:13:00,18.0,12.6,29.78,SSW,209,0.0,7.0,79,0.00,,,0.00,meteohub,2013-03-22 10:13:00,
2013-03-22 06:18:00,17.8,12.9,29.78,SSW,209,1.0,7.0,81,0.00,,,0.00,meteohub,2013-03-22 10:18:00,
2013-03-22 06:23:00,18.0,13.1,29.78,SW,227,5.0,5.0,81,0.00,,,0.00,meteohub,2013-03-22 10:23:00,
2013-03-22 06:28:00,18.1,13.3,29.78,WSW,239,2.0,6.0,81,0.00,,,0.00,meteohub,2013-03-22 10:28:00,
2013-03-22 06:33:00,18.1,13.6,29.78,WSW,244,4.0,6.0,82,0.00,,,0.00,meteohub,2013-03-22 10:33:00,
2013-03-22 06:38:00,18.1,13.6,29.78,WSW,253,2.0,6.0,82,0.00,,,0.00,meteohub,2013-03-22 10:38:00,
2013-03-22 06:43:00,18.1,13.6,29.78,WSW,253,1.0,6.0,82,0.00,,,0.00,meteohub,2013-03-22 10:43:00,
2013-03-22 06:48:00,18.1,13.6,29.78,WSW,253,0.0,6.0,82,0.00,,,0.00,meteohub,2013-03-22 10:48:00,
2013-03-22 06:53:00,18.0,13.5,29.78,WSW,253,1.0,6.0,82,0.00,,,0.00,meteohub,2013-03-22 10:53:00,
2013-03-22 06:58:00,17.8,13.3,29.78,WSW,253,0.0,3.0,82,0.00,,,0.00,meteohub,2013-03-22 10:58:00,
2013-03-22 07:03:00,17.8,13.5,29.78,WSW,253,0.0,2.0,83,0.00,,,0.00,meteohub,2013-03-22 11:03:00,
2013-03-22 07:08:00,17.8,13.5,29.78,WSW,253,0.0,2.0,83,0.00,,,0.00,meteohub,2013-03-22 11:08:00,
2013-03-22 07:13:00,17.6,13.3,29.78,WSW,253,3.0,3.0,83,0.00,,,0.00,meteohub,2013-03-22 11:13:00,
2013-03-22 07:18:00,17.4,13.1,29.78,WSW,253,2.0,3.0,83,0.00,,,0.00,meteohub,2013-03-22 11:18:00,
2013-03-22 07:23:00,17.6,13.3,29.79,WSW,252,1.0,3.0,83,0.00,,,0.00,meteohub,2013-03-22 11:23:00,
2013-03-22 07:28:00,17.4,13.1,29.79,WSW,251,1.0,4.0,83,0.00,,,0.00,meteohub,2013-03-22 11:28:00,
2013-03-22 07:33:00,17.8,13.5,29.79,WSW,247,5.0,5.0,83,0.00,,,0.00,meteohub,2013-03-22 11:33:00,
2013-03-22 07:38:00,17.8,13.5,29.79,WSW,247,2.0,4.0,83,0.00,,,0.00,meteohub,2013-03-22 11:38:00,
2013-03-22 07:44:00,17.8,13.5,29.79,WSW,239,3.0,5.0,83,0.00,,,0.00,meteohub,2013-03-22 11:44:00,
2013-03-22 07:48:00,17.8,13.5,29.79,WSW,239,3.0,5.0,83,0.00,,,0.00,meteohub,2013-03-22 11:48:00,
2013-03-22 07:54:00,18.5,15.1,29.79,NW,317,0.0,5.0,86,0.00,,,0.00,meteohub,2013-03-22 11:54:00,
2013-03-22 07:59:00,18.7,15.3,29.80,WSW,255,1.0,5.0,86,0.00,,,0.00,meteohub,2013-03-22 11:59:00,
2013-03-22 08:04:00,18.9,15.4,29.80,WSW,256,0.0,5.0,86,0.00,,,0.00,meteohub,2013-03-22 12:04:00,
2013-03-22 08:09:00,19.0,15.6,29.80,WSW,256,0.0,5.0,86,0.00,,,0.00,meteohub,2013-03-22 12:09:00,
2013-03-22 08:14:00,19.2,15.8,29.80,WSW,256,2.0,3.0,86,0.00,,,0.00,meteohub,2013-03-22 12:14:00,
2013-03-22 08:19:00,19.4,16.0,29.80,WSW,255,0.0,1.0,86,0.00,,,0.00,meteohub,2013-03-22 12:19:00,
2013-03-22 08:24:00,19.6,15.8,29.80,WSW,256,0.0,2.0,85,0.00,,,0.00,meteohub,2013-03-22 12:24:00,
2013-03-22 08:29:00,19.9,16.2,29.80,WSW,256,0.0,2.0,85,0.00,,,0.00,meteohub,2013-03-22 12:29:00,
2013-03-22 08:34:00,20.5,16.3,29.80,WSW,256,0.0,2.0,84,0.00,,,0.00,meteohub,2013-03-22 12:34:00,
2013-03-22 08:39:00,20.7,16.3,29.80,WSW,256,0.0,1.0,83,0.00,,,0.00,meteohub,2013-03-22 12:39:00,
2013-03-22 08:44:00,20.8,16.5,29.80,WSW,241,3.0,3.0,83,0.00,,,0.00,meteohub,2013-03-22 12:44:00,
2013-03-22 08:49:00,21.2,16.9,29.80,WSW,241,0.0,3.0,83,0.00,,,0.00,meteohub,2013-03-22 12:49:00,
2013-03-22 08:54:00,21.4,16.5,29.80,WSW,241,0.0,3.0,81,0.00,,,0.00,meteohub,2013-03-22 12:54:00,
2013-03-22 08:59:00,20.8,16.5,29.80,WSW,241,2.0,3.0,83,0.00,,,0.00,meteohub,2013-03-22 12:59:00,
2013-03-22 09:04:00,20.8,16.5,29.80,SW,236,1.0,3.0,83,0.00,,,0.00,meteohub,2013-03-22 13:04:00,
2013-03-22 09:09:00,21.0,16.3,29.80,SW,236,0.0,3.0,82,0.00,,,0.00,meteohub,2013-03-22 13:09:00,
2013-03-22 09:14:00,21.6,16.9,29.80,SW,236,0.0,3.0,82,0.00,,,0.00,meteohub,2013-03-22 13:14:00,
2013-03-22 09:19:00,21.9,17.1,29.81,SW,236,0.0,3.0,81,0.00,,,0.00,meteohub,2013-03-22 13:19:00,
2013-03-22 09:24:00,21.7,16.5,29.81,SW,236,0.0,2.0,80,0.00,,,0.00,meteohub,2013-03-22 13:24:00,
2013-03-22 09:29:00,21.7,16.9,29.81,SW,236,0.0,3.0,81,0.00,,,0.00,meteohub,2013-03-22 13:29:00,
2013-03-22 09:34:00,21.9,16.7,29.81,WSW,252,1.0,3.0,80,0.00,,,0.00,meteohub,2013-03-22 13:34:00,
2013-03-22 09:39:00,22.8,17.6,29.81,West,271,0.0,5.0,80,0.00,,,0.00,meteohub,2013-03-22 13:39:00,
2013-03-22 09:44:00,24.3,18.1,29.81,NNW,339,3.0,5.0,77,0.00,,,0.00,meteohub,2013-03-22 13:44:00,
2013-03-22 09:49:00,25.3,18.5,29.81,WNW,302,0.0,6.0,75,0.00,,,0.00,meteohub,2013-03-22 13:49:00,
2013-03-22 09:54:00,25.3,18.1,29.81,West,261,0.0,6.0,74,0.00,,,0.00,meteohub,2013-03-22 13:54:00,
2013-03-22 09:59:00,25.3,18.1,29.81,WNW,297,2.0,7.0,74,0.00,,,0.00,meteohub,2013-03-22 13:59:00,
2013-03-22 10:04:00,26.4,18.9,29.81,NW,319,1.0,10.0,73,0.00,,,0.00,meteohub,2013-03-22 14:04:00,
2013-03-22 10:09:00,26.8,18.3,29.81,West,261,0.0,10.0,70,0.00,,,0.00,meteohub,2013-03-22 14:09:00,
2013-03-22 10:14:00,26.8,18.3,29.81,West,260,5.0,10.0,70,0.00,,,0.00,meteohub,2013-03-22 14:14:00,
2013-03-22 10:19:00,27.1,18.7,29.81,SW,235,5.0,8.0,70,0.00,,,0.00,meteohub,2013-03-22 14:19:00,
2013-03-22 10:24:00,27.1,18.7,29.81,WNW,298,1.0,11.0,70,0.00,,,0.00,meteohub,2013-03-22 14:24:00,
2013-03-22 10:29:00,27.3,18.5,29.81,NW,311,5.0,11.0,69,0.00,,,0.00,meteohub,2013-03-22 14:29:00,
2013-03-22 10:34:00,27.1,18.7,29.81,WNW,297,2.0,9.0,70,0.00,,,0.00,meteohub,2013-03-22 14:34:00,
2013-03-22 10:39:00,27.5,19.0,29.80,SSW,213,5.0,11.0,70,0.00,,,0.00,meteohub,2013-03-22 14:39:00,
2013-03-22 10:44:00,27.0,18.5,29.80,WSW,246,1.0,11.0,70,0.00,,,0.00,meteohub,2013-03-22 14:44:00,
2013-03-22 10:49:00,27.5,19.0,29.80,WNW,295,5.0,11.0,70,0.00,,,0.00,meteohub,2013-03-22 14:49:00,
2013-03-22 10:54:00,27.9,19.0,29.80,SW,227,4.0,9.0,69,0.00,,,0.00,meteohub,2013-03-22 14:54:00,
2013-03-22 10:59:00,28.2,19.0,29.81,NW,326,2.0,9.0,68,0.00,,,0.00,meteohub,2013-03-22 14:59:00,
2013-03-22 11:04:00,28.9,19.4,29.80,NW,306,4.0,7.0,67,0.00,,,0.00,meteohub,2013-03-22 15:04:00,
2013-03-22 11:09:00,28.8,19.2,29.81,SSW,213,3.0,7.0,67,0.00,,,0.00,meteohub,2013-03-22 15:09:00,
2013-03-22 11:14:00,29.1,19.2,29.81,West,269,1.0,8.0,66,0.00,,,0.00,meteohub,2013-03-22 15:14:00,
2013-03-22 11:19:00,29.1,18.9,29.81,WSW,243,0.0,8.0,65,0.00,,,0.00,meteohub,2013-03-22 15:19:00,
2013-03-22 11:24:00,29.5,19.2,29.81,West,271,2.0,9.0,65,0.00,,,0.00,meteohub,2013-03-22 15:24:00,
2013-03-22 11:29:00,30.0,19.4,29.81,WSW,243,5.0,9.0,64,0.00,,,0.00,meteohub,2013-03-22 15:29:00,
2013-03-22 11:34:00,29.3,19.0,29.81,West,270,2.0,9.0,65,0.00,,,0.00,meteohub,2013-03-22 15:34:00,
2013-03-22 11:39:00,29.1,18.9,29.81,NNW,327,1.0,10.0,65,0.00,,,0.00,meteohub,2013-03-22 15:39:00,
2013-03-22 11:44:00,29.5,18.9,29.81,NW,317,2.0,10.0,64,0.00,,,0.00,meteohub,2013-03-22 15:44:00,
2013-03-22 11:49:00,29.3,19.0,29.81,West,265,7.0,11.0,65,0.00,,,0.00,meteohub,2013-03-22 15:49:00,
2013-03-22 11:54:00,29.7,19.4,29.81,West,279,1.0,11.0,65,0.00,,,0.00,meteohub,2013-03-22 15:54:00,
2013-03-22 11:59:00,29.5,19.2,29.81,West,271,5.0,11.0,65,0.00,,,0.00,meteohub,2013-03-22 15:59:00,
2013-03-22 12:04:00,28.9,19.4,29.81,WNW,296,2.0,10.0,67,0.00,,,0.00,meteohub,2013-03-22 16:04:00,
2013-03-22 12:09:00,29.7,20.1,29.81,North,9,3.0,12.0,67,0.00,,,0.00,meteohub,2013-03-22 16:09:00,
2013-03-22 12:14:00,29.8,19.9,29.81,WSW,239,8.0,12.0,66,0.00,,,0.00,meteohub,2013-03-22 16:14:00,
2013-03-22 12:19:00,29.3,19.4,29.81,NW,306,5.0,12.0,66,0.00,,,0.00,meteohub,2013-03-22 16:19:00,
2013-03-22 12:25:00,29.7,20.1,29.81,West,277,3.0,9.0,67,0.00,,,0.00,meteohub,2013-03-22 16:25:00,
2013-03-22 12:30:00,29.7,19.0,29.81,NW,318,2.0,9.0,64,0.00,,,0.00,meteohub,2013-03-22 16:30:00,
2013-03-22 12:35:00,29.5,19.2,29.81,West,260,4.0,9.0,65,0.00,,,0.00,meteohub,2013-03-22 16:35:00,
2013-03-22 12:40:00,29.1,19.2,29.81,West,269,3.0,9.0,66,0.00,,,0.00,meteohub,2013-03-22 16:40:00,
2013-03-22 12:45:00,29.3,19.4,29.81,North,0,0.0,9.0,66,0.00,,,0.00,meteohub,2013-03-22 16:45:00,
2013-03-22 12:50:00,29.5,19.6,29.81,WSW,253,4.0,8.0,66,0.00,,,0.00,meteohub,2013-03-22 16:50:00,
2013-03-22 12:55:00,29.5,19.6,29.81,North,0,4.0,8.0,66,0.00,,,0.00,meteohub,2013-03-22 16:55:00,
2013-03-22 13:00:00,29.1,19.2,29.81,West,261,2.0,8.0,66,0.00,,,0.00,meteohub,2013-03-22 17:00:00,
2013-03-22 13:05:00,29.3,19.4,29.80,WSW,242,0.0,6.0,66,0.00,,,0.00,meteohub,2013-03-22 17:05:00,
2013-03-22 13:10:00,30.2,19.6,29.80,SSE,159,0.0,6.0,64,0.00,,,0.00,meteohub,2013-03-22 17:10:00,
2013-03-22 13:15:00,30.9,19.0,29.80,WNW,295,3.0,9.0,61,0.00,,,0.00,meteohub,2013-03-22 17:15:00,
2013-03-22 13:20:00,30.9,19.8,29.80,NW,306,5.0,9.0,63,0.00,,,0.00,meteohub,2013-03-22 17:20:00,
2013-03-22 13:25:00,30.9,19.0,29.80,WNW,294,3.0,9.0,61,0.00,,,0.00,meteohub,2013-03-22 17:25:00,
2013-03-22 13:30:00,30.9,20.1,29.80,NW,318,4.0,9.0,64,0.00,,,0.00,meteohub,2013-03-22 17:30:00,
2013-03-22 13:35:00,31.3,19.8,29.80,WSW,250,3.0,9.0,62,0.00,,,0.00,meteohub,2013-03-22 17:35:00,
2013-03-22 13:40:00,30.4,20.3,29.80,West,270,4.0,8.0,66,0.00,,,0.00,meteohub,2013-03-22 17:40:00,
2013-03-22 13:45:00,30.0,21.0,29.80,North,0,4.0,9.0,69,0.00,,,0.00,meteohub,2013-03-22 17:45:00,
2013-03-22 13:50:00,30.2,22.3,29.80,NNW,344,3.0,9.0,72,0.00,,,0.00,meteohub,2013-03-22 17:50:00,
2013-03-22 13:55:00,30.4,23.4,29.80,WNW,286,4.0,8.0,75,0.00,,,0.00,meteohub,2013-03-22 17:55:00,
2013-03-22 14:00:00,29.8,22.3,29.79,WNW,300,5.0,7.0,73,0.00,,,0.00,meteohub,2013-03-22 18:00:00,
2013-03-22 14:05:00,30.0,22.8,29.79,West,261,3.0,7.0,74,0.00,,,0.00,meteohub,2013-03-22 18:05:00,
2013-03-22 14:10:00,29.7,22.5,29.79,NW,309,2.0,7.0,74,0.00,,,0.00,meteohub,2013-03-22 18:10:00,
2013-03-22 14:15:00,29.5,22.5,29.79,NW,304,3.0,9.0,75,0.00,,,0.00,meteohub,2013-03-22 18:15:00,
2013-03-22 14:20:00,29.3,22.6,29.79,SW,220,0.0,9.0,76,0.00,,,0.00,meteohub,2013-03-22 18:20:00,
2013-03-22 14:25:00,29.3,23.4,29.79,WSW,246,3.0,9.0,78,0.00,,,0.00,meteohub,2013-03-22 18:25:00,
2013-03-22 14:30:00,28.8,22.8,29.79,WSW,256,1.0,10.0,78,0.00,,,0.00,meteohub,2013-03-22 18:30:00,
2013-03-22 14:35:00,28.8,23.0,29.79,SW,225,5.0,10.0,79,0.00,,,0.00,meteohub,2013-03-22 18:35:00,
2013-03-22 14:40:00,28.4,23.4,29.79,SW,233,5.0,10.0,81,0.00,,,0.00,meteohub,2013-03-22 18:40:00,
2013-03-22 14:45:00,28.8,23.7,29.79,West,274,0.0,10.0,81,0.00,,,0.00,meteohub,2013-03-22 18:45:00,
2013-03-22 14:50:00,28.9,23.5,29.79,SSW,213,10.0,10.0,80,0.00,,,0.00,meteohub,2013-03-22 18:50:00,
2013-03-22 14:55:00,29.1,24.1,29.78,NNW,343,11.0,11.0,81,0.00,,,0.00,meteohub,2013-03-22 18:55:00,
2013-03-22 15:00:00,29.8,23.5,29.79,West,261,4.0,11.0,77,0.00,,,0.00,meteohub,2013-03-22 19:00:00,
2013-03-22 15:05:00,29.8,23.9,29.78,SW,225,3.0,11.0,78,0.00,,,0.00,meteohub,2013-03-22 19:05:00,
2013-03-22 15:10:00,29.7,23.7,29.79,SSW,207,0.0,11.0,78,0.00,,,0.00,meteohub,2013-03-22 19:10:00,
2013-03-22 15:15:00,29.8,23.5,29.79,WNW,295,4.0,9.0,77,0.00,,,0.00,meteohub,2013-03-22 19:15:00,
2013-03-22 15:20:00,30.0,22.8,29.79,NW,307,9.0,10.0,74,0.00,,,0.00,meteohub,2013-03-22 19:20:00,
2013-03-22 15:25:00,30.4,23.4,29.78,West,265,2.0,12.0,75,0.00,,,0.00,meteohub,2013-03-22 19:25:00,
2013-03-22 15:30:00,30.7,23.4,29.78,WSW,255,1.0,12.0,74,0.00,,,0.00,meteohub,2013-03-22 19:30:00,
2013-03-22 15:35:00,31.3,23.7,29.78,West,263,2.0,12.0,73,0.00,,,0.00,meteohub,2013-03-22 19:35:00,
2013-03-22 15:40:00,32.2,23.9,29.78,WSW,241,0.0,9.0,71,0.00,,,0.00,meteohub,2013-03-22 19:40:00,
2013-03-22 15:45:00,31.8,23.2,29.78,NW,304,1.0,9.0,70,0.00,,,0.00,meteohub,2013-03-22 19:45:00,
2013-03-22 15:50:00,30.6,23.5,29.78,WNW,283,3.0,9.0,75,0.00,,,0.00,meteohub,2013-03-22 19:50:00,
2013-03-22 15:55:00,30.0,24.6,29.79,WNW,295,0.0,10.0,80,0.00,,,0.00,meteohub,2013-03-22 19:55:00,
2013-03-22 16:01:00,29.1,25.0,29.79,WNW,301,5.0,10.0,84,0.00,,,0.00,meteohub,2013-03-22 20:01:00,
2013-03-22 16:06:00,28.6,25.2,29.79,WNW,295,5.0,8.0,87,0.00,,,0.00,meteohub,2013-03-22 20:06:00,
2013-03-22 16:11:00,28.2,25.3,29.79,WSW,257,3.0,9.0,89,0.01,,,0.01,meteohub,2013-03-22 20:11:00,
2013-03-22 16:16:00,28.8,26.2,29.79,SW,234,8.0,11.0,90,0.01,,,0.01,meteohub,2013-03-22 20:16:00,
2013-03-22 16:21:00,29.1,26.1,29.79,WNW,301,1.0,11.0,88,0.01,,,0.01,meteohub,2013-03-22 20:21:00,
2013-03-22 16:26:00,29.3,25.9,29.79,NW,323,0.0,11.0,87,0.01,,,0.01,meteohub,2013-03-22 20:26:00,
2013-03-22 16:31:00,29.3,25.7,29.79,West,271,5.0,8.0,86,0.01,,,0.01,meteohub,2013-03-22 20:31:00,
2013-03-22 16:36:00,28.9,25.5,29.79,WNW,296,1.0,7.0,87,0.01,,,0.01,meteohub,2013-03-22 20:36:00,
2013-03-22 16:41:00,28.8,25.3,29.79,West,259,2.0,8.0,87,0.02,,,0.02,meteohub,2013-03-22 20:41:00,
2013-03-22 16:46:00,28.8,25.3,29.80,WNW,296,3.0,10.0,87,0.02,,,0.02,meteohub,2013-03-22 20:46:00,
2013-03-22 16:52:00,28.6,25.2,29.80,West,271,1.0,10.0,87,0.02,,,0.02,meteohub,2013-03-22 20:52:00,
2013-03-22 16:57:00,28.4,25.0,29.80,NW,304,1.0,10.0,87,0.02,,,0.02,meteohub,2013-03-22 20:57:00,
2013-03-22 17:02:00,28.6,25.5,29.80,NW,306,4.0,7.0,88,0.02,,,0.02,meteohub,2013-03-22 21:02:00,
2013-03-22 17:07:00,28.4,25.5,29.80,NW,322,0.0,7.0,89,0.02,,,0.02,meteohub,2013-03-22 21:07:00,
2013-03-22 17:12:00,28.4,25.5,29.80,SW,225,0.0,9.0,89,0.01,,,0.02,meteohub,2013-03-22 21:12:00,
2013-03-22 17:17:00,28.2,25.2,29.80,WNW,283,0.0,9.0,88,0.01,,,0.02,meteohub,2013-03-22 21:17:00,
2013-03-22 17:22:00,28.0,25.0,29.80,West,259,4.0,9.0,88,0.01,,,0.02,meteohub,2013-03-22 21:22:00,
2013-03-22 17:27:00,28.0,25.0,29.80,WNW,294,4.0,10.0,88,0.01,,,0.02,meteohub,2013-03-22 21:27:00,
2013-03-22 17:32:00,27.7,24.6,29.80,NW,306,0.0,10.0,88,0.01,,,0.02,meteohub,2013-03-22 21:32:00,
2013-03-22 17:37:00,27.7,24.8,29.80,WNW,292,2.0,10.0,89,0.00,,,0.02,meteohub,2013-03-22 21:37:00,
2013-03-22 17:42:00,27.7,24.8,29.80,NW,304,1.0,7.0,89,0.00,,,0.02,meteohub,2013-03-22 21:42:00,
2013-03-22 17:47:00,27.7,24.8,29.81,West,263,2.0,7.0,89,0.00,,,0.02,meteohub,2013-03-22 21:47:00,
2013-03-22 17:52:00,27.7,24.8,29.81,NW,313,1.0,9.0,89,0.00,,,0.02,meteohub,2013-03-22 21:52:00,
2013-03-22 17:57:00,27.5,25.0,29.81,WSW,240,4.0,9.0,90,0.00,,,0.02,meteohub,2013-03-22 21:57:00,
2013-03-22 18:02:00,27.3,24.8,29.81,West,274,0.0,9.0,90,0.00,,,0.02,meteohub,2013-03-22 22:02:00,
2013-03-22 18:07:00,27.3,24.8,29.81,WNW,284,0.0,7.0,90,0.00,,,0.02,meteohub,2013-03-22 22:07:00,
2013-03-22 18:12:00,27.3,24.8,29.81,NW,317,6.0,10.0,90,0.00,,,0.02,meteohub,2013-03-22 22:12:00,
2013-03-22 18:17:00,27.1,24.6,29.81,SSW,206,3.0,10.0,90,0.00,,,0.02,meteohub,2013-03-22 22:17:00,
2013-03-22 18:22:00,27.0,24.4,29.81,WNW,298,1.0,10.0,90,0.00,,,0.02,meteohub,2013-03-22 22:22:00,
2013-03-22 18:27:00,27.0,24.6,29.82,West,261,0.0,10.0,91,0.00,,,0.02,meteohub,2013-03-22 22:27:00,
2013-03-22 18:32:00,27.0,24.6,29.82,West,273,3.0,10.0,91,0.00,,,0.02,meteohub,2013-03-22 22:32:00,
2013-03-22 18:37:00,26.8,24.4,29.82,NNW,331,4.0,10.0,91,0.00,,,0.02,meteohub,2013-03-22 22:37:00,
2013-03-22 18:42:00,26.8,24.4,29.83,WSW,243,4.0,10.0,91,0.00,,,0.02,meteohub,2013-03-22 22:42:00,
2013-03-22 18:47:00,26.8,24.4,29.83,NW,304,6.0,7.0,91,0.00,,,0.02,meteohub,2013-03-22 22:47:00,
2013-03-22 18:52:00,26.8,24.4,29.83,NNW,330,2.0,6.0,91,0.00,,,0.02,meteohub,2013-03-22 22:52:00,
2013-03-22 18:57:00,26.8,24.4,29.83,West,263,5.0,7.0,91,0.00,,,0.02,meteohub,2013-03-22 22:57:00,
2013-03-22 19:02:00,26.6,24.3,29.83,West,279,3.0,12.0,91,0.00,,,0.02,meteohub,2013-03-22 23:02:00,
2013-03-22 19:07:00,26.4,24.4,29.84,West,272,5.0,12.0,92,0.00,,,0.02,meteohub,2013-03-22 23:07:00,
2013-03-22 19:12:00,26.4,24.4,29.84,NW,326,2.0,9.0,92,0.00,,,0.02,meteohub,2013-03-22 23:12:00,
2013-03-22 19:17:00,26.2,24.3,29.84,West,264,1.0,9.0,92,0.00,,,0.02,meteohub,2013-03-22 23:17:00,
2013-03-22 19:22:00,26.2,24.3,29.84,West,272,5.0,10.0,92,0.00,,,0.02,meteohub,2013-03-22 23:22:00,
2013-03-22 19:27:00,26.2,24.3,29.84,West,275,6.0,10.0,92,0.00,,,0.02,meteohub,2013-03-22 23:27:00,
2013-03-22 19:32:00,26.2,23.9,29.85,WNW,298,2.0,10.0,91,0.00,,,0.02,meteohub,2013-03-22 23:32:00,
2013-03-22 19:37:00,26.2,23.7,29.85,WNW,291,1.0,11.0,90,0.00,,,0.02,meteohub,2013-03-22 23:37:00,
2013-03-22 19:42:00,26.2,23.7,29.85,West,273,5.0,11.0,90,0.00,,,0.02,meteohub,2013-03-22 23:42:00,
2013-03-22 19:47:00,26.2,23.4,29.86,NE,42,1.0,11.0,89,0.00,,,0.02,meteohub,2013-03-22 23:47:00,
2013-03-22 19:52:00,26.2,23.4,29.86,West,277,2.0,8.0,89,0.00,,,0.02,meteohub,2013-03-22 23:52:00,
2013-03-22 19:57:00,26.2,23.4,29.86,WNW,298,6.0,8.0,89,0.00,,,0.02,meteohub,2013-03-22 23:57:00,
2013-03-22 20:02:00,26.2,23.4,29.86,NNW,344,3.0,8.0,89,0.00,,,0.02,meteohub,2013-03-23 00:02:00,
2013-03-22 20:07:00,26.1,23.2,29.86,WNW,284,2.0,11.0,89,0.00,,,0.00,meteohub,2013-03-23 00:07:00,
2013-03-22 20:12:00,26.1,23.2,29.86,West,281,3.0,11.0,89,0.00,,,0.00,meteohub,2013-03-23 00:12:00,
2013-03-22 20:17:00,25.9,22.8,29.87,NW,310,2.0,11.0,88,0.00,,,0.00,meteohub,2013-03-23 00:17:00,
2013-03-22 20:23:00,25.9,22.3,29.86,WNW,291,3.0,11.0,86,0.00,,,0.00,meteohub,2013-03-23 00:23:00,
2013-03-22 20:28:00,25.9,21.9,29.87,NNW,327,0.0,11.0,85,0.00,,,0.00,meteohub,2013-03-23 00:28:00,
2013-03-22 20:33:00,25.5,21.9,29.87,NW,306,1.0,11.0,86,0.00,,,0.00,meteohub,2013-03-23 00:33:00,
2013-03-22 20:38:00,25.3,21.4,29.87,WNW,288,1.0,8.0,85,0.00,,,0.00,meteohub,2013-03-23 00:38:00,
2013-03-22 20:43:00,25.2,21.6,29.88,SW,230,1.0,8.0,86,0.00,,,0.00,meteohub,2013-03-23 00:43:00,
2013-03-22 20:48:00,25.0,21.7,29.88,NW,314,4.0,8.0,87,0.00,,,0.00,meteohub,2013-03-23 00:48:00,
2013-03-22 20:53:00,24.8,21.6,29.87,NNW,333,3.0,9.0,87,0.00,,,0.00,meteohub,2013-03-23 00:53:00,
2013-03-22 20:58:00,24.6,21.6,29.87,SSE,166,0.0,11.0,88,0.00,,,0.00,meteohub,2013-03-23 00:58:00,
2013-03-22 21:03:00,24.3,21.6,29.87,WSW,254,2.0,11.0,89,0.00,,,0.00,meteohub,2013-03-23 01:03:00,
2013-03-22 21:08:00,24.3,21.6,29.87,NW,305,2.0,11.0,89,0.00,,,0.00,meteohub,2013-03-23 01:08:00,
2013-03-22 21:13:00,24.3,21.2,29.87,WNW,294,5.0,9.0,88,0.00,,,0.00,meteohub,2013-03-23 01:13:00,
2013-03-22 21:18:00,24.3,20.7,29.88,SW,221,0.0,9.0,86,0.00,,,0.00,meteohub,2013-03-23 01:18:00,
2013-03-22 21:23:00,24.4,20.7,29.88,West,281,3.0,9.0,85,0.00,,,0.00,meteohub,2013-03-23 01:23:00,
2013-03-22 21:28:00,24.4,20.3,29.88,East,86,0.0,10.0,84,0.00,,,0.00,meteohub,2013-03-23 01:28:00,
2013-03-22 21:33:00,24.4,19.9,29.88,WSW,257,4.0,10.0,83,0.00,,,0.00,meteohub,2013-03-23 01:33:00,
2013-03-22 21:38:00,24.4,19.9,29.88,North,5,1.0,10.0,83,0.00,,,0.00,meteohub,2013-03-23 01:38:00,
2013-03-22 21:43:00,24.4,19.8,29.88,WNW,299,5.0,10.0,82,0.00,,,0.00,meteohub,2013-03-23 01:43:00,
2013-03-22 21:48:00,24.4,19.8,29.88,WNW,287,0.0,9.0,82,0.00,,,0.00,meteohub,2013-03-23 01:48:00,
2013-03-22 21:53:00,24.4,20.3,29.88,WNW,299,2.0,9.0,84,0.00,,,0.00,meteohub,2013-03-23 01:53:00,
2013-03-22 21:58:00,24.1,20.3,29.88,ENE,63,1.0,7.0,85,0.00,,,0.00,meteohub,2013-03-23 01:58:00,
2013-03-22 22:03:00,23.7,20.5,29.88,NW,309,4.0,7.0,87,0.00,,,0.00,meteohub,2013-03-23 02:03:00,
2013-03-22 22:08:00,23.4,20.7,29.89,NW,320,0.0,9.0,89,0.00,,,0.00,meteohub,2013-03-23 02:08:00,
2013-03-22 22:13:00,23.2,20.7,29.89,NE,45,1.0,9.0,90,0.00,,,0.00,meteohub,2013-03-23 02:13:00,
2013-03-22 22:19:00,22.8,20.7,29.88,West,275,1.0,9.0,91,0.00,,,0.00,meteohub,2013-03-23 02:19:00,
2013-03-22 22:24:00,22.8,20.3,29.88,WNW,284,6.0,6.0,90,0.00,,,0.00,meteohub,2013-03-23 02:24:00,
2013-03-22 22:29:00,22.8,19.8,29.88,West,269,2.0,9.0,88,0.00,,,0.00,meteohub,2013-03-23 02:29:00,
2013-03-22 22:34:00,23.0,19.9,29.88,North,5,9.0,9.0,88,0.00,,,0.00,meteohub,2013-03-23 02:34:00,
2013-03-22 22:39:00,23.0,19.9,29.89,East,96,1.0,10.0,88,0.00,,,0.00,meteohub,2013-03-23 02:39:00,
2013-03-22 22:44:00,22.8,20.1,29.89,West,279,5.0,10.0,89,0.00,,,0.00,meteohub,2013-03-23 02:44:00,
2013-03-22 22:49:00,22.6,20.1,29.89,WNW,294,1.0,12.0,90,0.00,,,0.00,meteohub,2013-03-23 02:49:00,
2013-03-22 22:54:00,22.6,20.5,29.88,WNW,298,5.0,12.0,91,0.00,,,0.00,meteohub,2013-03-23 02:54:00,
2013-03-22 22:59:00,22.5,20.5,29.88,NW,312,1.0,12.0,92,0.00,,,0.00,meteohub,2013-03-23 02:59:00,
2013-03-22 23:04:00,22.5,20.5,29.88,WNW,292,0.0,8.0,92,0.00,,,0.00,meteohub,2013-03-23 03:04:00,
2013-03-22 23:09:00,22.5,20.5,29.88,West,278,2.0,8.0,92,0.00,,,0.00,meteohub,2013-03-23 03:09:00,
2013-03-22 23:14:00,22.5,20.3,29.88,ESE,115,1.0,8.0,91,0.00,,,0.00,meteohub,2013-03-23 03:14:00,
2013-03-22 23:19:00,22.6,20.1,29.88,West,279,6.0,7.0,90,0.00,,,0.00,meteohub,2013-03-23 03:19:00,
2013-03-22 23:24:00,22.6,19.9,29.88,NE,43,0.0,7.0,89,0.00,,,0.00,meteohub,2013-03-23 03:24:00,
2013-03-22 23:29:00,22.6,19.6,29.88,NW,319,1.0,7.0,88,0.00,,,0.00,meteohub,2013-03-23 03:29:00,
2013-03-22 23:34:00,22.8,19.6,29.88,NNW,329,1.0,7.0,87,0.00,,,0.00,meteohub,2013-03-23 03:34:00,
2013-03-22 23:39:00,23.0,19.4,29.88,NNW,338,0.0,6.0,86,0.00,,,0.00,meteohub,2013-03-23 03:39:00,
2013-03-22 23:44:00,23.2,19.4,29.88,West,265,1.0,6.0,85,0.00,,,0.00,meteohub,2013-03-23 03:44:00,
2013-03-22 23:49:00,23.4,19.2,29.88,WNW,284,1.0,5.0,84,0.00,,,0.00,meteohub,2013-03-23 03:49:00,
2013-03-22 23:54:00,23.4,19.2,29.88,West,259,0.0,8.0,84,0.00,,,0.00,meteohub,2013-03-23 03:54:00,
2013-03-22 23:59:00,23.5,19.4,29.88,West,275,2.0,8.0,84,0.00,,,0.00,meteohub,2013-03-23 03:59:00,